Location: Clatteringshaws Loch
(55.0508°N, 4.2860°W)
Time: 07:31:24
(UTC+01:00)

Amateur Radio Satellites - All Passes

Search period start: 27 July 2016 07:01
Search period end: 28 July 2016 07:01
Location: Clatteringshaws Loch, 55.0508°N, 4.2860°W

Satellite Date Start Highest point End Downlink Frequencies (MHz)
Time Altitude Azimuth
NOAA 18 27 Jul 07:05:06 07:10:05 32° 95° (E) 07:15:01 137.9125
AIST 2 27 Jul 07:17:55 07:20:34 17° 245° (WSW) 07:23:12 435.215
DOVE 4 27 Jul 07:27:25 07:31:38 26° 91° (E) 07:35:57 437.250
GOMX 1 27 Jul 07:32:14 07:36:59 47° 98° (E) 07:42:02 467.674
CINEMA 3 27 Jul 07:42:58 07:45:20 13° 82° (E) 07:47:43 145.822/145.860
HORYU 2 27 Jul 07:46:33 07:50:28 30° 300° (WNW) 07:54:21 437.375
Cubesat XI-IV 27 Jul 07:48:16 07:53:38 66° 103° (ESE) 07:58:58 437.490
AO-7 27 Jul 07:51:42 07:58:49 32° 318° (NW) 08:05:53 29.400- 29.500
HO-68 27 Jul 07:55:19 08:00:17 19° 84° (E) 08:05:12 435.675
LilacSat-2 27 Jul 07:59:48 08:03:44 83° 284° (WNW) 08:07:36 437.200
O/OREOS (USA 219) 27 Jul 08:04:47 08:07:53 18° 258° (WSW) 08:10:57 437.305
YUBILEINY 27 Jul 08:05:37 08:09:21 13° 63° (ENE) 08:13:05 435.215
BRITE-PL 27 Jul 08:06:35 08:11:07 55° 291° (WNW) 08:15:59 437.365/2234.400
STRAND 1 27 Jul 08:11:39 08:16:33 43° 262° (W) 08:21:28 437.568
CUTE-I 27 Jul 08:12:06 08:17:30 86° 290° (WNW) 08:22:51 437.470
Cosmos 2491 27 Jul 08:17:58 08:26:25 49° 66° (ENE) 08:34:51 435.465 / 435.565
PRISM 27 Jul 08:18:22 08:22:17 48° 67° (ENE) 08:26:13 437.425
SO-50 27 Jul 08:21:22 08:24:34 18° 114° (ESE) 08:27:46 436.795
RS-15 27 Jul 08:21:42 08:33:12 70° 125° (SE) 08:45:18 29.354- 29.394
SEEDS 27 Jul 08:23:42 08:26:00 14° 86° (E) 08:28:16 437.485
ANTELSAT 27 Jul 08:24:33 08:26:12 12° 46° (NE) 08:27:51 437.575/2403.000
NOAA 15 27 Jul 08:33:35 08:38:41 50° 295° (WNW) 08:43:45 137.62
COMPASS 1 27 Jul 08:36:13 08:38:20 14° 86° (E) 08:40:26 437.405
NOAA 18 27 Jul 08:45:37 08:51:04 56° 295° (WNW) 08:56:28 137.9125
CUBEBUG 2 27 Jul 08:51:47 08:54:55 17° 86° (E) 08:58:00 437.445
TIGRISAT 27 Jul 09:04:03 09:07:28 20° 55° (NE) 09:10:56 435.000
AAUSAT CUBESAT 2 27 Jul 09:04:09 09:07:12 20° 90° (E) 09:10:15 437.432
DOVE 4 27 Jul 09:04:41 09:09:41 65° 290° (WNW) 09:14:53 437.250
CANX-2 27 Jul 09:04:57 09:09:04 47° 99° (E) 09:13:08 2200.000
GOMX 1 27 Jul 09:10:36 09:15:00 35° 297° (WNW) 09:19:39 467.674
Oscar 11 27 Jul 09:14:43 09:16:34 12° 84° (E) 09:18:23 145.826/435.025
CINEMA 3 27 Jul 09:18:22 09:23:24 69° 102° (ESE) 09:28:25 145.822/145.860
CUTE 1.7 + AOD 2 27 Jul 09:18:25 09:22:36 55° 100° (E) 09:26:43 437.475
UNISAT 6 27 Jul 09:19:42 09:23:36 27° 59° (ENE) 09:27:33 437.425
Cubesat XI-IV 27 Jul 09:28:50 09:33:23 29° 304° (NW) 09:37:55 437.490
LilacSat-2 27 Jul 09:35:26 09:37:26 14° 306° (NW) 09:39:25 437.200
HO-68 27 Jul 09:42:03 09:49:18 74° 106° (ESE) 09:56:30 435.675
AO-7 27 Jul 09:44:28 09:49:12 17° 344° (NNW) 09:53:56 29.400- 29.500
BRITE-PL 27 Jul 09:46:57 09:48:48 12° 311° (NW) 09:50:42 437.365/2234.400
QB50P2 27 Jul 09:49:35 09:51:21 12° 49° (NE) 09:53:07 145.880/145.840
POLYITAN 1 27 Jul 09:52:08 09:53:59 13° 50° (NE) 09:55:50 437.675
CUTE-I 27 Jul 09:52:59 09:56:55 21° 309° (NW) 10:00:49 437.470
PRISM 27 Jul 09:54:30 09:57:50 24° 267° (W) 10:01:10 437.425
Cosmos 2504 27 Jul 09:55:06 10:01:22 22° 73° (ENE) 10:07:33 435.465 / 435.565
YUBILEINY 27 Jul 09:55:33 10:03:53 50° 88° (E) 10:12:17 435.215
ANTELSAT 27 Jul 09:57:23 10:01:54 49° 67° (ENE) 10:06:28 437.575/2403.000
SEEDS 27 Jul 09:58:07 10:02:19 86° 291° (WNW) 10:06:30 437.485
SO-50 27 Jul 09:59:31 10:04:24 77° 134° (SE) 10:09:13 436.795
UWE-3 27 Jul 10:05:49 10:10:22 48° 99° (E) 10:14:47 435.000/436.395/437.385
FUNcube-1 27 Jul 10:06:21 10:10:27 32° 94° (E) 10:14:28 145.935
ZACube-1 27 Jul 10:07:06 10:11:18 35° 95° (E) 10:15:23 437.345
COMPASS 1 27 Jul 10:10:22 10:14:32 89° 285° (WNW) 10:18:40 437.405
NOAA 15 27 Jul 10:14:54 10:17:23 14° 317° (NW) 10:19:53 137.62
Cosmos 2491 27 Jul 10:15:04 10:23:28 55° 270° (W) 10:31:54 435.465 / 435.565
CUBEBUG 2 27 Jul 10:27:23 10:32:12 85° 283° (WNW) 10:36:52 437.445
NOAA 18 27 Jul 10:27:28 10:30:41 16° 317° (NW) 10:33:54 137.9125
NANOSAT C BR1 27 Jul 10:33:34 10:36:56 23° 58° (ENE) 10:40:20 145.865
M-CUBED/EXP-1 PRIME 27 Jul 10:33:49 10:37:12 19° 95° (E) 10:40:37 437.505
RS-15 27 Jul 10:34:24 10:46:12 64° 335° (NNW) 10:58:31 29.354- 29.394
DUCHIFAT 1 27 Jul 10:37:54 10:41:18 24° 59° (ENE) 10:44:44 145.980
TIGRISAT 27 Jul 10:38:58 10:43:38 83° 255° (WSW) 10:48:24 435.000
AAUSAT CUBESAT 2 27 Jul 10:39:00 10:43:05 59° 289° (WNW) 10:47:08 437.432
CANX-2 27 Jul 10:41:11 10:44:46 27° 299° (WNW) 10:48:19 2200.000
DOVE 4 27 Jul 10:43:40 10:46:36 16° 309° (NW) 10:49:34 437.250
JAS-2 27 Jul 10:47:13 10:51:05 20° 51° (NE) 10:54:49 435.910
Oscar 11 27 Jul 10:49:06 10:53:28 79° 105° (ESE) 10:57:47 145.826/435.025
BUGSAT 1 27 Jul 10:54:00 10:56:48 18° 55° (NE) 10:59:39 437.445
CUTE 1.7 + AOD 2 27 Jul 10:54:47 10:58:10 24° 301° (WNW) 11:01:33 437.475
QB50P1 27 Jul 10:55:13 10:59:06 35° 64° (ENE) 11:03:01 145.935-145.965
UNISAT 6 27 Jul 10:55:26 11:00:02 58° 259° (W) 11:04:43 437.425
CINEMA 3 27 Jul 10:56:04 11:00:09 26° 302° (WNW) 11:04:15 145.822/145.860
AUBIESAT-1 27 Jul 10:59:49 11:03:43 26° 99° (E) 11:07:38 437.475
POPSAT HIP 1 27 Jul 11:01:32 11:05:30 39° 65° (ENE) 11:09:30 437.405
DELFI C3 27 Jul 11:03:21 11:07:14 54° 100° (E) 11:11:05 145.870
QB50P2 27 Jul 11:22:08 11:26:20 61° 70° (ENE) 11:30:36 145.880/145.840
HUMSAT D 27 Jul 11:23:24 11:27:30 45° 99° (E) 11:31:31 437.325/437.525
POLYITAN 1 27 Jul 11:24:45 11:28:59 62° 69° (ENE) 11:33:16 437.675
HO-68 27 Jul 11:30:12 11:36:36 36° 309° (NW) 11:42:59 435.675
Oscar 19 27 Jul 11:32:33 11:35:20 15° 46° (NE) 11:38:09 437.125/150
AO-7 27 Jul 11:34:24 11:38:53 16° 12° (NNE) 11:43:22 29.400- 29.500
ANTELSAT 27 Jul 11:34:45 11:38:50 29° 267° (W) 11:42:58 437.575/2403.000
SEEDS 27 Jul 11:34:58 11:37:26 15° 306° (NW) 11:39:54 437.485
SO-50 27 Jul 11:40:45 11:45:17 37° 336° (NNW) 11:49:45 436.795
FUNcube-1 27 Jul 11:42:32 11:46:49 41° 295° (WNW) 11:50:59 145.935
UWE-3 27 Jul 11:42:35 11:46:40 31° 299° (WNW) 11:50:41 435.000/436.395/437.385
ZACube-1 27 Jul 11:43:24 11:47:39 39° 295° (WNW) 11:51:48 437.345
Cosmos 2504 27 Jul 11:44:31 11:53:22 73° 96° (E) 12:02:04 435.465 / 435.565
COMPASS 1 27 Jul 11:47:03 11:49:32 16° 306° (NW) 11:52:01 437.405
YUBILEINY 27 Jul 11:52:09 12:00:44 54° 292° (WNW) 12:09:25 435.215
ESTCUBE 1 27 Jul 11:57:41 12:01:16 23° 91° (E) 12:04:50 437.505/2401.250
CUBEBUG 2 27 Jul 12:04:57 12:08:10 18° 307° (NW) 12:11:21 437.445
M-CUBED/EXP-1 PRIME 27 Jul 12:07:33 12:12:12 81° 295° (WNW) 12:16:56 437.505
NANOSAT C BR1 27 Jul 12:08:10 12:12:22 59° 259° (W) 12:16:37 145.865
DUCHIFAT 1 27 Jul 12:12:33 12:16:43 56° 259° (WSW) 12:20:57 145.980
SPROUT 27 Jul 12:13:17 12:14:21 11° 83° (E) 12:15:25 437.525
Cosmos 2491 27 Jul 12:13:55 12:18:16 15° 295° (WNW) 12:22:38 435.465 / 435.565
VELOX 1 27 Jul 12:15:05 12:18:26 21° 90° (E) 12:21:47 145.980
AAUSAT CUBESAT 2 27 Jul 12:16:26 12:17:46 11° 310° (NW) 12:19:06 437.432
CUBEBUG 1 27 Jul 12:16:30 12:20:05 24° 92° (E) 12:23:39 437.445
TIGRISAT 27 Jul 12:18:30 12:21:07 15° 275° (W) 12:23:43 435.000
Oscar 11 27 Jul 12:26:06 12:29:07 19° 304° (NW) 12:32:08 145.826/435.025
BUGSAT 1 27 Jul 12:27:34 12:31:42 79° 256° (WSW) 12:35:55 437.445
50 SAT 27 Jul 12:28:28 12:31:28 24° 94° (E) 12:34:26 437.505
JAS-2 27 Jul 12:29:48 12:35:37 82° 71° (ENE) 12:40:57 435.910
QB50P1 27 Jul 12:30:56 12:34:53 36° 264° (W) 12:38:52 145.935-145.965
AUBIESAT-1 27 Jul 12:33:55 12:38:27 59° 298° (WNW) 12:43:01 437.475
UNISAT 6 27 Jul 12:37:28 12:37:47 10° 279° (W) 12:38:07 437.425
POPSAT HIP 1 27 Jul 12:37:32 12:41:22 32° 265° (W) 12:45:15 437.405
DELFI C3 27 Jul 12:38:45 12:41:49 22° 300° (WNW) 12:44:52 145.870
RS-15 27 Jul 12:49:08 13:01:00 55° 7° (N) 13:13:09 29.354- 29.394
Gurwin Techsat 1B 27 Jul 12:49:44 12:54:06 26° 55° (NE) 12:58:29 435.225
AIST 1 27 Jul 12:52:30 12:54:46 14° 81° (E) 12:57:02
QB50P2 27 Jul 12:59:19 13:02:33 21° 270° (W) 13:05:48 145.880/145.840
HUMSAT D 27 Jul 12:59:21 13:02:58 28° 299° (WNW) 13:06:32 437.325/437.525
AISAT 27 Jul 12:59:21 13:03:42 49° 100° (E) 13:08:02 437.250
DX 1 27 Jul 12:59:34 13:03:38 36° 97° (E) 13:07:41 434.975-435.025
POLYITAN 1 27 Jul 13:01:58 13:05:12 20° 270° (W) 13:08:26 437.675
ITAMSAT 1 27 Jul 13:06:08 13:09:21 17° 47° (NE) 13:12:35 435.822/435.867
Oscar 19 27 Jul 13:08:43 13:13:44 59° 67° (ENE) 13:18:48 437.125/150
TISAT 1 27 Jul 13:09:48 13:10:08 10° 83° (E) 13:10:29 437.305
UKube-1 27 Jul 13:13:25 13:17:31 39° 98° (E) 13:21:35 .
HO-68 27 Jul 13:18:54 13:22:26 14° 333° (NNW) 13:25:58 435.675
AO-7 27 Jul 13:22:19 13:29:07 29° 38° (NE) 13:35:54 29.400- 29.500
SO-50 27 Jul 13:22:50 13:26:54 26° 360° (N) 13:30:53 436.795
ESTCUBE 1 27 Jul 13:34:01 13:38:26 58° 291° (WNW) 13:42:51 437.505/2401.250
Cosmos 2504 27 Jul 13:39:19 13:47:30 39° 300° (WNW) 13:55:33 435.465 / 435.565
M-CUBED/EXP-1 PRIME 27 Jul 13:42:53 13:46:09 19° 313° (NW) 13:49:27 437.505
SPROUT 27 Jul 13:46:49 13:51:09 69° 103° (ESE) 13:55:28 437.525
VELOX 1 27 Jul 13:50:55 13:55:20 65° 290° (WNW) 13:59:45 145.980
CUBEBUG 1 27 Jul 13:52:23 13:56:41 55° 291° (WNW) 14:00:59 437.445
YUBILEINY 27 Jul 13:54:05 14:00:04 19° 321° (NW) 14:06:06 435.215
AO-85 27 Jul 13:55:47 13:59:20 18° 114° (ESE) 14:02:48 145.980
50 SAT 27 Jul 14:01:52 14:05:14 38° 294° (WNW) 14:08:36 437.505
BUGSAT 1 27 Jul 14:06:18 14:07:50 12° 275° (W) 14:09:24 437.445
GONETS M04 27 Jul 14:07:35 14:12:55 18° 69° (ENE) 14:18:17
AUBIESAT-1 27 Jul 14:09:31 14:12:07 15° 317° (NW) 14:14:44 437.475
JAS-2 27 Jul 14:17:08 14:21:22 21° 271° (W) 14:25:22 435.910
AIST 1 27 Jul 14:27:28 14:31:44 85° 282° (WNW) 14:36:03
Gurwin Techsat 1B 27 Jul 14:28:19 14:33:38 72° 255° (WSW) 14:39:00 435.225
DX 1 27 Jul 14:35:50 14:39:51 36° 297° (WNW) 14:43:52 434.975-435.025
AISAT 27 Jul 14:36:11 14:40:01 29° 300° (WNW) 14:43:50 437.250
SWISSCUBE 27 Jul 14:42:07 14:45:38 20° 89° (E) 14:49:07 437.505
TISAT 1 27 Jul 14:42:23 14:46:40 66° 103° (ESE) 14:50:54 437.305
ITAMSAT 1 27 Jul 14:42:48 14:47:58 66° 69° (ENE) 14:53:11 435.822/435.867
Cosmos 2499 27 Jul 14:47:13 14:53:37 23° 74° (ENE) 14:59:50 435.465 / 435.565
Oscar 19 27 Jul 14:49:04 14:53:26 28° 268° (W) 14:57:49 437.125/150
UKube-1 27 Jul 14:49:37 14:53:31 33° 298° (WNW) 14:57:25 .
CUSAT 1 27 Jul 15:02:15 15:05:00 85° 80° (E) 15:08:13 437.405
RS-15 27 Jul 15:02:56 15:15:17 80° 38° (NE) 15:27:43 29.354- 29.394
BEESAT 27 Jul 15:03:10 15:07:14 27° 93° (E) 15:11:16 436.000
SO-50 27 Jul 15:04:02 15:08:30 37° 24° (NNE) 15:12:51 436.795
AO-7 27 Jul 15:12:27 15:20:47 74° 62° (ENE) 15:29:09 29.400- 29.500
ESTCUBE 1 27 Jul 15:12:29 15:14:24 13° 312° (NW) 15:16:19 437.505/2401.250
SPROUT 27 Jul 15:23:28 15:26:43 21° 303° (WNW) 15:29:57 437.525
DANDE 27 Jul 15:25:25 15:27:58 42° 72° (ENE) 15:30:30 436.750
ITUPSAT 1 27 Jul 15:26:05 15:30:35 39° 97° (E) 15:35:03 437.325
VELOX 1 27 Jul 15:28:49 15:31:02 14° 311° (NW) 15:33:15 145.980
CUBEBUG 1 27 Jul 15:30:33 15:32:06 12° 312° (NW) 15:33:40 437.445
AO-85 27 Jul 15:33:55 15:39:13 74° 133° (SE) 15:44:10 145.980
Cosmos 2504 27 Jul 15:39:23 15:44:00 15° 328° (NNW) 15:48:32 435.465 / 435.565
HORYU 2 27 Jul 15:39:32 15:42:46 20° 55° (NE) 15:46:03 437.375
MOZHAYETS 4 27 Jul 15:45:18 15:47:01 12° 83° (E) 15:48:42
GONETS M04 27 Jul 15:59:28 16:07:59 65° 93° (E) 16:16:36
Cubesat XI-IV 27 Jul 16:02:17 16:04:17 12° 40° (NE) 16:06:17 437.490
AIST 1 27 Jul 16:07:42 16:10:05 14° 303° (WNW) 16:12:29
Gurwin Techsat 1B 27 Jul 16:11:44 16:14:35 14° 277° (W) 16:17:28 435.225
BRITE-PL 27 Jul 16:11:56 16:13:10 11° 48° (NE) 16:14:23 437.365/2234.400
TISAT 1 27 Jul 16:18:42 16:21:57 21° 303° (WNW) 16:25:11 437.305
SWISSCUBE 27 Jul 16:19:11 16:23:59 74° 289° (WNW) 16:28:43 437.505
ITAMSAT 1 27 Jul 16:23:37 16:27:54 25° 268° (W) 16:32:14 435.822/435.867
CUTE-I 27 Jul 16:24:23 16:27:34 16° 46° (NE) 16:30:45 437.470
Cosmos 2499 27 Jul 16:36:39 16:45:30 77° 97° (E) 16:54:01 435.465 / 435.565
BEESAT 27 Jul 16:40:40 16:45:20 55° 293° (WNW) 16:49:59 436.000
NOAA 15 27 Jul 16:43:01 16:47:07 24° 53° (NE) 16:51:14 137.62
SO-50 27 Jul 16:44:38 16:49:21 72° 227° (SW) 16:53:55 436.795
KKS-1 27 Jul 16:45:35 16:49:40 33° 96° (E) 16:53:43 437.445
HO-68 27 Jul 16:48:38 16:52:00 14° 26° (NNE) 16:55:22 435.675
NOAA 18 27 Jul 16:59:25 17:04:00 27° 53° (NE) 17:08:35 137.9125
ITUPSAT 1 27 Jul 17:04:02 17:08:27 38° 298° (WNW) 17:12:51 437.325
CUBESAT XI-V 27 Jul 17:05:41 17:06:23 10° 81° (E) 17:07:04 437.345
DOVE 4 27 Jul 17:06:32 17:07:36 11° 45° (NE) 17:08:41 437.250
AO-7 27 Jul 17:06:41 17:14:15 37° 265° (W) 17:21:53 29.400- 29.500
GOMX 1 27 Jul 17:11:40 17:14:36 18° 54° (NE) 17:17:38 467.674
HORYU 2 27 Jul 17:14:21 17:18:51 80° 254° (WSW) 17:23:25 437.375
AO-85 27 Jul 17:15:13 17:20:05 39° 334° (NNW) 17:24:37 145.980
LilacSat-2 27 Jul 17:15:22 17:18:14 20° 59° (ENE) 17:21:06 437.200
RS-15 27 Jul 17:15:47 17:27:14 48° 246° (WSW) 17:38:38 29.354- 29.394
MOZHAYETS 4 27 Jul 17:20:28 17:25:04 71° 103° (ESE) 17:29:38
STARS 27 Jul 17:23:56 17:28:09 39° 98° (E) 17:32:20 437.465
Cubesat XI-IV 27 Jul 17:38:04 17:43:07 43° 62° (ENE) 17:48:11 437.490
BRITE-PL 27 Jul 17:46:43 17:50:47 58° 70° (ENE) 17:54:59 437.365/2234.400
GONETS M04 27 Jul 17:57:14 18:05:22 42° 298° (WNW) 18:13:37
SWISSCUBE 27 Jul 17:58:06 18:01:03 16° 310° (NW) 18:03:59 437.505
YUBILEINY 27 Jul 17:59:28 18:04:08 15° 30° (NNE) 18:08:46 435.215
CUTE-I 27 Jul 18:01:24 18:06:41 61° 67° (ENE) 18:12:00 437.470
BEESAT 27 Jul 18:20:02 18:22:12 13° 314° (NW) 18:24:21 436.000
NOAA 15 27 Jul 18:21:09 18:26:24 81° 254° (WSW) 18:31:42 137.62
KKS-1 27 Jul 18:22:06 18:26:20 41° 296° (WNW) 18:30:33 437.445
SO-50 27 Jul 18:26:21 18:29:04 15° 248° (WSW) 18:31:44 436.795
CANX-2 27 Jul 18:30:47 18:33:17 15° 54° (NE) 18:35:47 2200.000
Cosmos 2499 27 Jul 18:31:26 18:39:27 37° 301° (WNW) 18:47:11 435.465 / 435.565
HO-68 27 Jul 18:31:28 18:37:46 34° 50° (NE) 18:44:04 435.675
NOAA 18 27 Jul 18:38:40 18:44:13 75° 254° (WSW) 18:49:49 137.9125
DOVE 4 27 Jul 18:39:58 18:44:11 47° 66° (ENE) 18:48:40 437.250
CUBESAT XI-V 27 Jul 18:40:09 18:44:45 62° 102° (ESE) 18:49:19 437.345
CUTE 1.7 + AOD 2 27 Jul 18:43:48 18:46:36 17° 55° (NE) 18:49:24 437.475
GOMX 1 27 Jul 18:47:55 18:52:08 82° 253° (WSW) 18:56:39 467.674
LilacSat-2 27 Jul 18:48:21 18:52:12 60° 259° (W) 18:56:05 437.200
CINEMA 3 27 Jul 18:50:53 18:54:41 25° 58° (ENE) 18:58:38 145.822/145.860
HORYU 2 27 Jul 18:54:00 18:56:12 13° 275° (W) 18:58:23 437.375
AO-85 27 Jul 18:57:30 19:01:40 26° 358° (N) 19:05:35 145.980
MOZHAYETS 4 27 Jul 18:58:18 19:01:50 22° 303° (WNW) 19:05:20
STARS 27 Jul 19:00:27 19:04:28 34° 298° (WNW) 19:08:30 437.465
BEESAT 3 27 Jul 19:11:32 19:14:46 25° 120° (ESE) 19:18:02 437.485
PCSat 27 Jul 19:14:23 19:17:58 18° 107° (ESE) 19:21:33 145.827
Cubesat XI-IV 27 Jul 19:18:10 19:23:15 42° 263° (W) 19:28:22 437.490
BEESAT 2 27 Jul 19:18:42 19:21:25 18° 117° (ESE) 19:24:09 435.950
SEEDS 27 Jul 19:21:43 19:25:12 25° 61° (ENE) 19:28:42 437.485
BRITE-PL 27 Jul 19:26:40 19:29:45 20° 271° (W) 19:32:54 437.365/2234.400
RS-15 27 Jul 19:31:14 19:36:18 14° 272° (W) 19:41:21 29.354- 29.394
COMPASS 1 27 Jul 19:33:13 19:36:36 24° 60° (ENE) 19:39:59 437.405
UWE-3 27 Jul 19:34:52 19:38:01 18° 53° (NE) 19:41:11 435.000/436.395/437.385
FUNcube-1 27 Jul 19:35:09 19:37:16 13° 49° (NE) 19:39:23 145.935
ZACube-1 27 Jul 19:35:56 19:38:17 14° 50° (NE) 19:40:37 437.345
Cosmos 2504 27 Jul 19:35:57 19:40:51 16° 35° (NE) 19:45:34 435.465 / 435.565
Cosmos 2491 27 Jul 19:41:46 19:42:27 10° 59° (ENE) 19:43:07 435.465 / 435.565
CUTE-I 27 Jul 19:42:30 19:47:07 29° 268° (W) 19:51:46 437.470
M-CUBED/EXP-1 PRIME 27 Jul 19:54:19 19:56:34 14° 42° (NE) 19:58:53 437.505
YUBILEINY 27 Jul 19:56:04 20:04:16 39° 60° (ENE) 20:12:23 435.215
CUBEBUG 2 27 Jul 19:56:08 20:00:17 32° 62° (ENE) 20:04:30 437.445
GONETS M04 27 Jul 20:00:27 20:05:19 16° 328° (NNW) 20:10:13
AAUSAT CUBESAT 2 27 Jul 20:00:50 20:04:35 33° 64° (ENE) 20:08:19 437.432
NOAA 15 27 Jul 20:03:52 20:07:03 16° 274° (W) 20:10:15 137.62
CANX-2 27 Jul 20:04:15 20:08:32 82° 74° (ENE) 20:12:50 2200.000
STRAND 1 27 Jul 20:14:28 20:19:17 39° 97° (E) 20:24:03 437.568
Oscar 11 27 Jul 20:15:30 20:19:02 24° 59° (ENE) 20:22:34 145.826/435.025
CUTE 1.7 + AOD 2 27 Jul 20:17:38 20:21:56 85° 257° (WSW) 20:26:13 437.475
HO-68 27 Jul 20:17:47 20:25:00 78° 253° (WSW) 20:32:16 435.675
CUBESAT XI-V 27 Jul 20:18:06 20:21:49 25° 302° (WNW) 20:25:33 437.345
DOVE 4 27 Jul 20:18:21 20:22:09 28° 268° (W) 20:26:10 437.250
AUBIESAT-1 27 Jul 20:19:26 20:22:16 18° 46° (NE) 20:25:14 437.475
NOAA 18 27 Jul 20:22:32 20:25:51 16° 275° (W) 20:29:11 137.9125
DELFI C3 27 Jul 20:23:19 20:25:27 14° 54° (NE) 20:27:36 145.870
CINEMA 3 27 Jul 20:26:53 20:31:27 63° 259° (WSW) 20:36:18 145.822/145.860
GOMX 1 27 Jul 20:29:16 20:31:09 12° 277° (W) 20:33:03 467.674
Cosmos 2499 27 Jul 20:31:37 20:35:41 14° 329° (NNW) 20:39:42 435.465 / 435.565
AO-85 27 Jul 20:38:54 20:43:19 34° 22° (NNE) 20:47:23 145.980
O/OREOS (USA 219) 27 Jul 20:44:52 20:48:17 22° 104° (ESE) 20:51:42 437.305
HUMSAT D 27 Jul 20:47:53 20:50:23 15° 53° (NE) 20:52:51 437.325/437.525
BEESAT 3 27 Jul 20:48:15 20:52:10 64° 321° (NW) 20:56:08 437.485
BEESAT 2 27 Jul 20:54:46 20:58:46 86° 319° (NW) 21:02:48 435.950
PCSat 27 Jul 20:55:08 21:00:33 77° 128° (SE) 21:06:01 145.827
SEEDS 27 Jul 20:56:35 21:00:42 50° 260° (W) 21:04:50 437.485
COMPASS 1 27 Jul 21:07:50 21:11:56 53° 260° (W) 21:16:02 437.405
FUNcube-1 27 Jul 21:08:10 21:12:39 60° 70° (ENE) 21:17:12 145.935
UWE-3 27 Jul 21:09:13 21:13:51 87° 76° (ENE) 21:18:35 435.000/436.395/437.385
ZACube-1 27 Jul 21:09:13 21:13:44 64° 71° (ENE) 21:18:20 437.345
AIST 2 27 Jul 21:21:35 21:24:24 18° 116° (ESE) 21:27:16 435.215
M-CUBED/EXP-1 PRIME 27 Jul 21:26:22 21:30:16 63° 63° (ENE) 21:34:32 437.505
PRISM 27 Jul 21:28:00 21:31:34 28° 95° (E) 21:35:08 437.425
Cosmos 2491 27 Jul 21:28:46 21:36:41 41° 84° (E) 21:44:37 435.465 / 435.565
Cosmos 2504 27 Jul 21:29:01 21:37:02 45° 63° (ENE) 21:44:28 435.465 / 435.565
ESTCUBE 1 27 Jul 21:31:06 21:32:12 11° 46° (NE) 21:33:18 437.505/2401.250
CUBEBUG 2 27 Jul 21:32:17 21:36:46 47° 262° (W) 21:41:23 437.445
AAUSAT CUBESAT 2 27 Jul 21:36:13 21:40:04 35° 264° (W) 21:43:55 437.432
CANX-2 27 Jul 21:42:23 21:44:59 15° 273° (W) 21:47:34 2200.000
Oscar 11 27 Jul 21:50:37 21:54:54 57° 259° (W) 21:59:12 145.826/435.025
AUBIESAT-1 27 Jul 21:52:09 21:56:08 89° 83° (E) 22:00:28 437.475
YUBILEINY 27 Jul 21:53:01 22:01:50 71° 265° (W) 22:10:33 435.215
STRAND 1 27 Jul 21:53:43 21:58:32 42° 297° (WNW) 22:03:20 437.568
DELFI C3 27 Jul 21:55:45 21:59:44 84° 75° (ENE) 22:03:44 145.870
CUTE 1.7 + AOD 2 27 Jul 21:56:23 21:58:28 13° 275° (W) 22:00:33 437.475
CINEMA 3 27 Jul 22:08:22 22:09:41 11° 280° (W) 22:11:01 145.822/145.860
HO-68 27 Jul 22:08:46 22:13:56 21° 275° (W) 22:19:07 435.675
AO-85 27 Jul 22:19:34 22:24:15 79° 226° (SW) 22:28:29 145.980
HUMSAT D 27 Jul 22:21:02 22:25:21 79° 74° (ENE) 22:29:41 437.325/437.525
O/OREOS (USA 219) 27 Jul 22:22:49 22:27:16 67° 304° (NW) 22:31:46 437.305
TIGRISAT 27 Jul 22:24:40 22:27:14 14° 85° (E) 22:29:46 435.000
BEESAT 3 27 Jul 22:27:14 22:30:30 24° 343° (NNW) 22:33:48 437.485
DX 1 27 Jul 22:27:58 22:30:29 15° 51° (NE) 22:32:58 434.975-435.025
AISAT 27 Jul 22:28:44 22:31:52 19° 55° (NE) 22:35:01 437.250
BEESAT 2 27 Jul 22:33:38 22:37:05 27° 339° (NNW) 22:40:35 435.950
ISS 27 Jul 22:38:52 22:41:09 18° 150° (SSE) 22:43:25 145.825
PCSat 27 Jul 22:39:27 22:44:27 36° 331° (NNW) 22:49:30 145.827
UNISAT 6 27 Jul 22:40:32 22:44:02 20° 89° (E) 22:47:27 437.425
UKube-1 27 Jul 22:40:47 22:43:24 16° 52° (NE) 22:46:01 .
FUNcube-1 27 Jul 22:45:35 22:49:15 23° 270° (W) 22:52:58 145.935
ZACube-1 27 Jul 22:46:53 22:50:27 22° 270° (W) 22:54:03 437.345
UWE-3 27 Jul 22:48:00 22:50:59 17° 274° (W) 22:53:58 435.000/436.395/437.385
AIST 1 27 Jul 22:52:04 22:52:26 10° 51° (NE) 22:52:49
AIST 2 27 Jul 22:58:15 23:02:23 88° 311° (NW) 23:06:34 435.215
M-CUBED/EXP-1 PRIME 27 Jul 23:02:20 23:05:16 20° 265° (W) 23:08:23 437.505
PRISM 27 Jul 23:03:09 23:07:01 41° 294° (WNW) 23:10:53 437.425
ESTCUBE 1 27 Jul 23:03:43 23:08:02 48° 66° (ENE) 23:12:22 437.505/2401.250
SPROUT 27 Jul 23:12:29 23:15:46 22° 57° (ENE) 23:19:04 437.525
50 SAT 27 Jul 23:12:32 23:15:51 33° 65° (ENE) 23:19:10 437.505
ANTELSAT 27 Jul 23:18:29 23:22:55 40° 97° (E) 23:27:14 437.575/2403.000
VELOX 1 27 Jul 23:18:51 23:22:59 42° 65° (ENE) 23:27:11 145.980
CUBEBUG 1 27 Jul 23:19:01 23:23:09 46° 67° (ENE) 23:27:19 437.445
Cosmos 2504 27 Jul 23:22:39 23:30:47 57° 269° (W) 23:38:18 435.465 / 435.565
Cosmos 2491 27 Jul 23:24:35 23:33:14 64° 289° (WNW) 23:41:55 435.465 / 435.565
AUBIESAT-1 27 Jul 23:29:07 23:31:19 14° 268° (W) 23:33:35 437.475
DELFI C3 27 Jul 23:33:08 23:35:10 14° 273° (W) 23:37:12 145.870
STRAND 1 27 Jul 23:34:58 23:36:32 11° 319° (NW) 23:38:05 437.568
NANOSAT C BR1 27 Jul 23:46:25 23:48:54 15° 87° (E) 23:51:23 145.865
DUCHIFAT 1 27 Jul 23:50:26 23:53:00 15° 87° (E) 23:55:32 145.980
YUBILEINY 27 Jul 23:51:05 23:57:03 21° 289° (WNW) 00:03:01 435.215
HUMSAT D 27 Jul 23:58:47 00:01:32 16° 273° (W) 00:04:17 437.325/437.525
TIGRISAT 27 Jul 23:59:58 00:04:42 83° 104° (ESE) 00:09:18 435.000
AO-85 28 Jul 00:01:15 00:03:54 16° 248° (WSW) 00:06:27 145.980
DX 1 28 Jul 00:01:40 00:06:00 77° 73° (ENE) 00:10:22 434.975-435.025
AISAT 28 Jul 00:03:28 00:07:52 80° 254° (WSW) 00:12:20 437.250
GONETS M04 28 Jul 00:03:47 00:09:24 18° 37° (NE) 00:15:01
O/OREOS (USA 219) 28 Jul 00:04:25 00:07:33 18° 327° (NNW) 00:10:43 437.305
BUGSAT 1 28 Jul 00:04:45 00:05:27 10° 83° (E) 00:06:10 437.445
BEESAT 3 28 Jul 00:06:17 00:09:20 21° 7° (N) 00:12:23 437.485
TISAT 1 28 Jul 00:06:30 00:09:39 21° 57° (ENE) 00:12:50 437.305
QB50P1 28 Jul 00:08:24 00:11:55 24° 92° (E) 00:15:24 145.935-145.965
BEESAT 2 28 Jul 00:13:00 00:16:03 20° 3° (N) 00:19:05 435.950
ISS 28 Jul 00:13:57 00:17:03 40° 169° (S) 00:20:08 145.825
UKube-1 28 Jul 00:14:31 00:18:50 82° 74° (ENE) 00:23:11 .
POPSAT HIP 1 28 Jul 00:14:48 00:18:28 26° 93° (E) 00:22:06 437.405
UNISAT 6 28 Jul 00:16:34 00:21:15 70° 289° (WNW) 00:25:49 437.425
SWISSCUBE 28 Jul 00:21:00 00:22:51 12° 45° (NE) 00:24:42 437.505
PCSat 28 Jul 00:24:59 00:29:19 23° 357° (N) 00:33:39 145.827
AIST 1 28 Jul 00:26:51 00:31:07 53° 73° (ENE) 00:35:23
Cosmos 2499 28 Jul 00:27:11 00:31:50 16° 36° (NE) 00:36:18 435.465 / 435.565
QB50P2 28 Jul 00:35:37 00:39:44 42° 98° (E) 00:43:49 145.880/145.840
AIST 2 28 Jul 00:37:43 00:41:22 29° 339° (NNW) 00:45:03 435.215
POLYITAN 1 28 Jul 00:38:15 00:42:24 43° 98° (E) 00:46:30 437.675
ESTCUBE 1 28 Jul 00:41:13 00:45:04 28° 267° (W) 00:48:57 437.505/2401.250
BEESAT 28 Jul 00:41:13 00:43:57 15° 49° (NE) 00:46:42 436.000
50 SAT 28 Jul 00:46:20 00:49:32 28° 264° (W) 00:52:46 437.505
SPROUT 28 Jul 00:47:06 00:51:21 65° 257° (WSW) 00:55:40 437.525
ANTELSAT 28 Jul 00:55:20 00:59:37 36° 297° (WNW) 01:03:49 437.575/2403.000
VELOX 1 28 Jul 00:55:43 00:59:37 30° 265° (W) 01:03:32 145.980
CUBEBUG 1 28 Jul 00:55:56 00:59:39 27° 267° (W) 01:03:23 437.445
ITUPSAT 1 28 Jul 01:03:36 01:07:09 21° 54° (NE) 01:10:41 437.325
Oscar 19 28 Jul 01:14:43 01:16:43 12° 82° (E) 01:18:42 437.125/150
JAS-2 28 Jul 01:15:29 01:20:16 35° 96° (E) 01:25:17 435.910
Cosmos 2504 28 Jul 01:17:56 01:22:12 15° 294° (WNW) 01:26:20 435.465 / 435.565
NANOSAT C BR1 28 Jul 01:20:56 01:25:15 85° 286° (WNW) 01:29:32 145.865
DUCHIFAT 1 28 Jul 01:24:58 01:29:17 83° 286° (WNW) 01:33:34 145.980
Cosmos 2491 28 Jul 01:25:46 01:32:11 22° 316° (NW) 01:38:39 435.465 / 435.565
BUGSAT 1 28 Jul 01:37:25 01:41:41 67° 103° (ESE) 01:45:56 437.445
TIGRISAT 28 Jul 01:37:28 01:40:51 20° 306° (NW) 01:44:11 435.000
DX 1 28 Jul 01:39:54 01:42:45 17° 271° (W) 01:45:37 434.975-435.025
TISAT 1 28 Jul 01:40:44 01:44:55 67° 257° (WSW) 01:49:10 437.305
AISAT 28 Jul 01:43:08 01:45:07 13° 275° (W) 01:47:08 437.250
QB50P1 28 Jul 01:43:47 01:47:59 52° 291° (WNW) 01:52:09 145.935-145.965
BEESAT 3 28 Jul 01:44:11 01:47:57 38° 30° (NNE) 01:51:41 437.485
ISS 28 Jul 01:50:03 01:53:10 42° 189° (S) 01:56:17 145.825
POPSAT HIP 1 28 Jul 01:50:19 01:54:28 47° 293° (WNW) 01:58:35 437.405
BEESAT 2 28 Jul 01:51:15 01:54:55 32° 26° (NNE) 01:58:33 435.950
UKube-1 28 Jul 01:52:51 01:55:29 16° 272° (W) 01:58:07 .
UNISAT 6 28 Jul 01:54:30 01:57:11 15° 310° (NW) 01:59:51 437.425
SWISSCUBE 28 Jul 01:55:02 01:59:39 50° 66° (ENE) 02:04:18 437.505
GONETS M04 28 Jul 02:00:25 02:08:57 50° 66° (ENE) 02:17:27
AIST 1 28 Jul 02:05:02 02:08:25 22° 273° (W) 02:11:48
PCSat 28 Jul 02:09:30 02:14:18 30° 22° (NNE) 02:19:05 145.827
QB50P2 28 Jul 02:11:40 02:15:27 31° 298° (WNW) 02:19:13 145.880/145.840
POLYITAN 1 28 Jul 02:14:19 02:18:06 30° 298° (WNW) 02:21:52 437.675
BEESAT 28 Jul 02:16:12 02:20:57 67° 70° (ENE) 02:25:44 436.000
KKS-1 28 Jul 02:16:19 02:18:48 15° 50° (NE) 02:21:17 437.445
AIST 2 28 Jul 02:17:44 02:20:59 21° 2° (N) 02:24:14 435.215
Cosmos 2499 28 Jul 02:19:53 02:27:39 45° 64° (ENE) 02:34:48 435.465 / 435.565
Gurwin Techsat 1B 28 Jul 02:37:26 02:41:57 27° 92° (E) 02:46:27 435.225
ITUPSAT 1 28 Jul 02:39:39 02:44:28 83° 255° (WSW) 02:49:19 437.325
ITAMSAT 1 28 Jul 02:49:51 02:52:22 13° 83° (E) 02:54:52 435.822/435.867
Oscar 19 28 Jul 02:51:57 02:57:06 63° 103° (ESE) 03:02:15 437.125/150
MOZHAYETS 4 28 Jul 02:53:00 02:56:53 27° 59° (ENE) 03:00:45
STARS 28 Jul 02:53:03 02:55:51 17° 52° (NE) 02:58:39 437.465
NANOSAT C BR1 28 Jul 02:57:46 03:00:24 16° 307° (NW) 03:03:01 145.865
JAS-2 28 Jul 03:00:38 03:05:37 47° 295° (WNW) 03:10:50 435.910
DUCHIFAT 1 28 Jul 03:01:48 03:04:22 16° 307° (NW) 03:06:56 145.980
AO-7 28 Jul 03:07:44 03:11:53 14° 78° (ENE) 03:16:00 29.400- 29.500
BUGSAT 1 28 Jul 03:13:28 03:16:41 21° 303° (WNW) 03:19:53 437.445
TISAT 1 28 Jul 03:20:55 03:21:26 10° 277° (W) 03:21:57 437.305
QB50P1 28 Jul 03:21:40 03:22:52 11° 312° (NW) 03:24:04 145.935-145.965
BEESAT 3 28 Jul 03:21:54 03:25:45 49° 232° (SW) 03:29:35 437.485
ISS 28 Jul 03:26:39 03:29:07 20° 208° (SSW) 03:31:34 145.825
O/OREOS (USA 219) 28 Jul 03:28:43 03:30:27 12° 19° (NNE) 03:32:12 437.305
POPSAT HIP 1 28 Jul 03:28:57 03:29:17 10° 314° (NW) 03:29:38 437.405
BEESAT 2 28 Jul 03:29:03 03:33:03 69° 228° (SW) 03:37:02 435.950
Cosmos 2491 28 Jul 03:33:06 03:33:42 10° 349° (N) 03:34:18 435.465 / 435.565
SWISSCUBE 28 Jul 03:33:30 03:37:42 30° 266° (W) 03:41:54 437.505
KKS-1 28 Jul 03:50:13 03:54:38 71° 70° (ENE) 03:59:07 437.445
PCSat 28 Jul 03:53:02 03:58:31 77° 46° (NE) 04:03:57 145.827
BEESAT 28 Jul 03:55:28 03:59:12 22° 269° (W) 04:02:57 436.000
AIST 2 28 Jul 03:56:41 04:00:31 34° 26° (NNE) 04:04:21 435.215
GONETS M04 28 Jul 03:57:31 04:06:00 55° 270° (W) 04:14:29
CUSAT 1 28 Jul 04:13:15 04:16:37 39° 100° (E) 04:19:24 437.405
Cosmos 2499 28 Jul 04:13:16 04:21:02 54° 270° (W) 04:28:12 435.465 / 435.565
CUBESAT XI-V 28 Jul 04:14:13 04:17:55 24° 58° (ENE) 04:21:37 437.345
Gurwin Techsat 1B 28 Jul 04:17:03 04:22:20 63° 292° (WNW) 04:27:35 435.225
ITUPSAT 1 28 Jul 04:20:19 04:23:05 15° 274° (W) 04:25:52 437.325
STARS 28 Jul 04:27:10 04:31:35 84° 73° (ENE) 04:36:04 437.465
ITAMSAT 1 28 Jul 04:27:37 04:32:51 69° 104° (ESE) 04:38:01 435.822/435.867
MOZHAYETS 4 28 Jul 04:29:14 04:33:48 56° 259° (W) 04:38:23
Oscar 19 28 Jul 04:31:46 04:36:08 29° 303° (WNW) 04:40:31 437.125/150
DANDE 28 Jul 04:40:53 04:45:23 37° 98° (E) 04:48:52 436.750
JAS-2 28 Jul 04:47:43 04:49:37 12° 318° (NW) 04:51:31 435.910
AO-7 28 Jul 04:58:34 05:06:46 54° 102° (ESE) 05:14:53 29.400- 29.500
HORYU 2 28 Jul 04:59:44 05:01:41 13° 85° (E) 05:03:38 437.375
O/OREOS (USA 219) 28 Jul 05:07:18 05:11:20 30° 44° (NE) 05:15:23 437.305
BEESAT 2 28 Jul 05:08:28 05:10:11 12° 247° (WSW) 05:11:55 435.950
KKS-1 28 Jul 05:28:33 05:31:43 19° 271° (W) 05:34:55 437.445
Cosmos 2491 28 Jul 05:32:24 05:36:05 13° 25° (NNE) 05:39:47 435.465 / 435.565
AIST 2 28 Jul 05:35:09 05:39:20 69° 227° (SW) 05:43:28 435.215
PCSat 28 Jul 05:36:58 05:41:28 27° 247° (WSW) 05:45:58 145.827
RS-15 28 Jul 05:40:38 05:47:45 19° 94° (E) 05:55:01 29.354- 29.394
BRITE-PL 28 Jul 05:44:36 05:46:39 12° 84° (E) 05:48:45 437.365/2234.400
CUBESAT XI-V 28 Jul 05:50:24 05:54:59 63° 258° (WSW) 05:59:35 437.345
GONETS M04 28 Jul 05:56:21 06:00:45 15° 295° (WNW) 06:05:11
CUSAT 1 28 Jul 05:56:38 05:58:42 15° 295° (WNW) 06:00:35 437.405
Gurwin Techsat 1B 28 Jul 05:58:11 06:01:23 16° 313° (NW) 06:04:33 435.225
STRAND 1 28 Jul 05:59:44 06:03:51 25° 55° (NE) 06:07:57 437.568
STARS 28 Jul 06:05:51 06:08:34 16° 272° (W) 06:11:19 437.465
ITAMSAT 1 28 Jul 06:07:39 06:11:57 27° 305° (NW) 06:16:14 435.822/435.867
Cosmos 2499 28 Jul 06:08:38 06:12:07 14° 295° (WNW) 06:15:32 435.465 / 435.565
CUTE-I 28 Jul 06:12:30 06:15:13 14° 83° (E) 06:17:55 437.470
LilacSat-2 28 Jul 06:16:59 06:17:42 10° 84° (E) 06:18:26 437.200
DANDE 28 Jul 06:24:07 06:28:10 28° 291° (WNW) 06:31:25 436.750
NOAA 15 28 Jul 06:29:23 06:33:31 23° 90° (E) 06:37:37 137.62
HORYU 2 28 Jul 06:34:32 06:39:04 76° 105° (ESE) 06:43:32 437.375
GOMX 1 28 Jul 06:42:00 06:45:44 21° 89° (E) 06:49:37 467.674
O/OREOS (USA 219) 28 Jul 06:46:35 06:51:02 56° 245° (WSW) 06:55:29 437.305
PRISM 28 Jul 06:52:37 06:53:25 10° 48° (NE) 06:54:12 437.425
